DW7764 Sant Quirze del Vallas ES current weather conditions

sailwx.info

Wind from 105

Air temperature 18.3° C
Dewpoint 12.8° C

Last reported at 2019-Sep-16 22:00 UTC.
Time now 2019-Sep-16 22:48 UTC

Location: N 41°30' E 002°00'.
View on Google Maps.

See reports from other nearby stations

  
Tides and Currents Weather Stations Pressure Air Temp Water Temp Dewpoint Dewpoint Depression Visibility Wind Speed Wind Dir Waves Ship Positions
date/time (UTC)wind fromknots sea level pressurealtimeterstation pressurevisibilityair tempwater tempwave heightnotes
2019-Sep-16 22:00 105 18.3
2019-Sep-16 21:45 105 18.3
2019-Sep-16 21:32 105 18.9
2019-Sep-16 21:30 105 18.9
2019-Sep-16 21:17 105 18.9
2019-Sep-16 21:03 105 19.4
2019-Sep-16 20:48 105 19.4
2019-Sep-16 20:32 105 19.4
2019-Sep-16 20:17 105 20.0
2019-Sep-16 20:02 106 20.6
2019-Sep-16 19:46 105 21.1
2019-Sep-16 19:32 106 21.1
2019-Sep-16 19:16 106 21.1
2019-Sep-16 19:03 105 21.1
2019-Sep-16 18:47 105 21.7
2019-Sep-16 18:32 105 22.2
2019-Sep-16 18:16 105 22.8
2019-Sep-16 18:02 105 23.9
2019-Sep-16 17:46 105 23.9
2019-Sep-16 17:31 106 24.4
2019-Sep-16 17:18 106 25.0
2019-Sep-16 17:01 162 0 gusting 2 25.0
2019-Sep-16 16:47 139 0 gusting 4 25.6
2019-Sep-16 16:31 119 1 gusting 4 26.1
2019-Sep-16 16:17 106 1 gusting 4 26.1
2019-Sep-16 16:01 105 0 gusting 3 26.1
2019-Sep-16 15:47 128 1 gusting 3 26.7
2019-Sep-16 15:31 122 0 gusting 3 26.7
2019-Sep-16 15:16 104 1 gusting 3 26.7
2019-Sep-16 15:01 126 26.7
2019-Sep-16 14:46 128 26.1
2019-Sep-16 14:30 116 0 gusting 3 26.1
2019-Sep-16 14:16 140 0 gusting 3 26.1
2019-Sep-16 14:02 103 1 gusting 4 26.1
2019-Sep-16 13:46 128 26.1
2019-Sep-16 13:30 211 2 gusting 6 26.7
2019-Sep-16 13:16 086 4 gusting 8 26.1
2019-Sep-16 13:00 155 3 gusting 7 26.1
2019-Sep-16 12:46 128 2 gusting 6 26.1
2019-Sep-16 12:30 113 3 gusting 6 26.1
2019-Sep-16 12:15 132 2 gusting 6 26.7
2019-Sep-16 12:01 112 3 gusting 8 26.7
2019-Sep-16 11:46 148 0 gusting 6 26.7
2019-Sep-16 11:31 131 1 gusting 6 26.7
2019-Sep-16 11:15 089 3 gusting 7 26.7
2019-Sep-16 11:01 142 3 gusting 6 27.2
2019-Sep-16 10:45 112 26.7
2019-Sep-16 10:31 110 2 gusting 6 26.7
2019-Sep-16 10:16 071 1 gusting 5 26.1
2019-Sep-16 10:00 158 0 gusting 2 26.7
2019-Sep-16 09:45 132 0 gusting 4 26.7
2019-Sep-16 09:30 097 26.1
2019-Sep-16 09:15 114 1 gusting 3 25.6
2019-Sep-16 09:00 129 0 gusting 2 25.6
2019-Sep-16 08:45 146 0 gusting 2 25.6
2019-Sep-16 08:30 113 25.0
2019-Sep-16 08:15 123 23.9
2019-Sep-16 08:00 183 22.8
2019-Sep-16 07:49 183 21.7
2019-Sep-16 07:32 183 20.0
2019-Sep-16 07:16 183 18.9
2019-Sep-16 07:01 184 17.2
2019-Sep-16 06:46 183 16.7
2019-Sep-16 06:32 183 16.1
2019-Sep-16 06:16 183 15.6
2019-Sep-16 06:01 182 15.6
2019-Sep-16 05:45 183 15.6
2019-Sep-16 05:32 183 15.0
2019-Sep-16 05:15 183 15.0
2019-Sep-16 05:01 183 15.6
2019-Sep-16 04:46 183 15.6
2019-Sep-16 04:31 183 15.6
2019-Sep-16 04:16 183 15.6
2019-Sep-16 04:01 183 15.6
2019-Sep-16 03:46 183 15.6
2019-Sep-16 03:31 183 15.6
2019-Sep-16 03:15 183 15.0
2019-Sep-16 03:01 183 15.6
2019-Sep-16 02:45 183 15.6
2019-Sep-16 02:31 183 15.6
2019-Sep-16 02:15 183 15.6
2019-Sep-16 02:01 183 15.6
2019-Sep-16 01:45 183 15.6
2019-Sep-16 01:30 182 15.6
2019-Sep-16 01:15 183 16.1
2019-Sep-16 01:00 183 16.1
2019-Sep-16 00:45 183 16.1
2019-Sep-16 00:30 183 16.7
2019-Sep-16 00:15 182 16.7
2019-Sep-16 00:00 183 16.7
2019-Sep-15 23:45 183 17.2
2019-Sep-15 23:30 183 17.2
2019-Sep-15 23:15 183 17.8
2019-Sep-15 23:00 182 17.8
2019-Sep-15 22:45 183 17.8
2019-Sep-15 22:31 183 17.8
2019-Sep-15 22:16 183 17.8
2019-Sep-15 22:02 183 18.3
2019-Sep-15 21:46 183 18.9
2019-Sep-15 21:32 183 18.9
2019-Sep-15 21:16 183 20.0
2019-Sep-15 21:01 183 20.6
2019-Sep-15 20:46 183 20.6
2019-Sep-15 20:30 183 20.6
2019-Sep-15 20:18 183 20.6
2019-Sep-15 20:03 184 21.1
2019-Sep-15 19:46 184 21.7
2019-Sep-15 19:31 183 22.2
2019-Sep-15 19:16 181 22.2
2019-Sep-15 19:01 174 22.8
2019-Sep-15 18:45 173 22.8
2019-Sep-15 18:31 145 22.8
2019-Sep-15 18:16 106 23.3
2019-Sep-15 18:01 094 0 gusting 5 23.3
2019-Sep-15 17:46 139 0 gusting 5 23.3
2019-Sep-15 17:31 117 23.9
2019-Sep-15 17:16 187 2 gusting 6 24.4
2019-Sep-15 17:01 125 3 gusting 7 25.0
2019-Sep-15 16:46 101 3 gusting 8 25.6
2019-Sep-15 16:45 098 3 gusting 8 25.6
2019-Sep-15 16:31 094 1 gusting 6 26.1
2019-Sep-15 16:16 141 1 gusting 6 26.1
2019-Sep-15 16:00 106 4 gusting 8 26.1
2019-Sep-15 15:46 172 2 gusting 6 26.7
2019-Sep-15 15:31 173 2 gusting 6 26.7
2019-Sep-15 15:17 188 2 gusting 7 26.7
2019-Sep-15 15:01 097 3 gusting 10 27.2
2019-Sep-15 14:46 094 3 gusting 7 28.9
2019-Sep-15 14:16 119 3 gusting 8 28.9
2019-Sep-15 13:45 088 4 gusting 12 28.3
2019-Sep-15 13:30 110 2 gusting 8 28.3
2019-Sep-15 13:15 142 5 gusting 10 27.8
2019-Sep-15 13:00 122 5 gusting 12 28.3
2019-Sep-15 12:45 155 3 gusting 10 30.0
2019-Sep-15 12:30 089 3 gusting 9 29.4
2019-Sep-15 12:15 152 3 gusting 8 29.4
2019-Sep-15 12:00 204 0 gusting 4 29.4
2019-Sep-15 11:45 046 29.4
2019-Sep-15 11:30 125 0 gusting 6 28.9
2019-Sep-15 11:15 354 0 gusting 6 28.3
2019-Sep-15 11:00 081 28.9
2019-Sep-15 10:45 113 0 gusting 6 28.3
2019-Sep-15 10:32 309 0 gusting 4 27.8
2019-Sep-15 10:17 203 27.8
2019-Sep-15 10:01 035 27.2
2019-Sep-15 09:46 321 0 gusting 6 26.1
2019-Sep-15 09:32 245 25.6
2019-Sep-15 09:16 142 25.6
2019-Sep-15 09:01 316 1 gusting 5 25.0
2019-Sep-15 08:46 047 24.4
2019-Sep-15 08:31 352 23.3
2019-Sep-15 08:16 205 22.8
2019-Sep-15 08:00 302 22.2
2019-Sep-15 07:46 249 21.1
2019-Sep-15 07:30 313 19.4
2019-Sep-15 07:16 312 18.3
2019-Sep-15 07:01 312 17.2
2019-Sep-15 06:45 312 17.2
2019-Sep-15 06:30 311 15.6
2019-Sep-15 06:16 312 15.6
2019-Sep-15 06:00 312 15.6
2019-Sep-15 05:45 312 15.6
2019-Sep-15 05:30 131 15.0
2019-Sep-15 05:16 131 15.6
2019-Sep-15 05:00 131 15.6
2019-Sep-15 04:46 131 15.6
2019-Sep-15 04:30 131 16.1
2019-Sep-15 04:15 131 16.1
2019-Sep-15 04:00 131 16.7
2019-Sep-15 03:45 131 16.7
2019-Sep-15 03:30 131 17.2
2019-Sep-15 03:15 131 17.8
2019-Sep-15 03:01 131 17.8
2019-Sep-15 02:46 023 18.9
2019-Sep-15 02:32 357 20.0
2019-Sep-15 02:16 348 20.6
2019-Sep-15 02:01 343 0 gusting 4 20.0
2019-Sep-15 01:31 341 19.4
2019-Sep-15 01:17 328 20.0
2019-Sep-15 01:03 008 0 gusting 5 20.0
2019-Sep-15 00:46 006 0 gusting 4 20.0
2019-Sep-15 00:31 090 19.4
2019-Sep-15 00:16 131 19.4
2019-Sep-15 00:01 131 20.0
2019-Sep-14 23:46 131 20.6
2019-Sep-14 23:30 131 20.6
2019-Sep-14 23:16 125 19.4
2019-Sep-14 23:01 132 18.9
2019-Sep-14 22:46 009 19.4
2019-Sep-14 22:30 008 20.0
2019-Sep-14 22:15 006 20.6
2019-Sep-14 22:00 360 1 gusting 5 20.6